Regional Weather Roundup
Issued by NWS

Home | Current Version | Previous Version | Text Only | Print | Product List | Glossary On
Versions: 1 2 3 4 5 6 7 8 9 10 11 12 13 14 15 16 17 18 19 20 21 22 23 24 25 26 27 28 29 30 31 32 33 34 35 36 37 38 39 40 41 42 43 44 45 46 47 48 49 50
990
ASUS44 KLIX 200901
RWRLA
LOUISIANA WEATHER ROUNDUP
NATIONAL WEATHER SERVICE NEW ORLEANS LA
400 AM CDT WED AUG 20 2014

NOTE: "FAIR" INDICATES FEW OR NO CLOUDS BELOW 12,000 FEET WITH NO
      SIGNIFICANT WEATHER AND/OR OBSTRUCTIONS TO VISIBILITY.
      SKY/WX - SKY CONDITION AND SIGNIFICANT WEATHER.
      TMP - AIR TEMPERATURE.    DP   - DEWPOINT TEMPERATURE.
      RH  - RELATIVE HUMIDITY.  PRES - PRESSURE.
      HX  - HEAT INDEX.         WCI  - WIND CHILL INDEX.

*  THESE STATIONS ARE NOT NWS OR FAA STATIONS AND ARE NOT UNDER
   NWS QUALITY CONTROL.

LAZ040-048-061>063-065-066-069-201000-
SOUTHEAST LOUISIANA

CITY           SKY/WX    TMP DP  RH WIND       PRES   REMARKS
N.O. AUDUBON   NOT AVBL
N.O. INTL ARPT PTCLDY    78  75  90 S5        29.98S
N.O. LAKEFRONT CLEAR     81  76  84 SW6       29.98S
N.O. DOWNTOWN* FAIR      82  73  74 S3        29.98F
SLIDELL        CLEAR     75  72  90 N3        29.98R
BATON ROUGE    CLEAR     73  70  90 CALM      29.97S
BOOTHVILLE     CLEAR     84  77  79 S7        29.99R
BELLE CHASSE   CLEAR     75  71  87 CALM      29.97S
BOGALUSA*      FAIR      75  71  88 CALM      30.00R
GALLIANO*      NOT AVBL
NEW ROADS*     FAIR      71  71  98 CALM      29.97S
GONZALES*      FAIR      73  73 100 CALM      29.97R
HAMMOND*       NOT AVBL
HOUMA*         CLEAR     74  71  89 CALM      29.98R FOG
PORT FOURCHON* MOSUNNY   84  75  74 S6        29.99S

$$

LAZ041-044-053-054-201000-
SOUTHWEST LOUISIANA

CITY           SKY/WX    TMP DP  RH WIND       PRES   REMARKS
LAKE CHARLES   CLEAR     74  73  97 SE5       29.96R
LAFAYETTE      PTCLDY    76  73  91 S5        29.97R
PATTERSON      CLEAR    N/A N/A N/A MISG        N/A
SALT POINT       N/A     85  77  77 VRB3      29.96S HX  95
NEW IBERIA     PTCLDY    73  71  93 SE3       29.97S FOG
CHENAULT AIRPK CLEAR     74  74 100 CALM      29.97S

$$

LAZ027-028-201000-
CENTRAL LOUISIANA

CITY           SKY/WX    TMP DP  RH WIND       PRES   REMARKS
FORT POLK      MOCLDY    73  70  90 S3        29.97R
ALEXANDRIA INT MOCLDY    72  70  93 SE5       29.95R
ALEXANDRIA     MOCLDY    75  72  90 CALM      29.97R

$$

LAZ001-002-201000-
NORTHWEST LOUISIANA

CITY           SKY/WX    TMP DP  RH WIND       PRES   REMARKS
SHREVEPORT     PTCLDY    72  68  87 CALM      29.94S
BARKSDALE AFB  MOCLDY    71  69  95 SE5       29.95R
DTN SHREVEPORT MOCLDY    74  69  85 CALM      29.95R

$$

LAZ014-016-201000-
NORTHEAST LOUISIANA

CITY           SKY/WX    TMP DP  RH WIND       PRES   REMARKS
MONROE         MOCLDY    73  70  90 S5        29.97R
TALLULAH       PTCLDY    74  72  93 CALM      29.97R

$$




USA.gov is the U.S. government's official web portal to all federal, state and local government web resources and services.